Ardonia, NY

3:21 AM EDT on March 27, 2015 (GMT -0400)
Highgait Farm | | Change Station
CLOSE
Current Station
Personal Weather Station
Location: Clintondale, NY
Elevation: 715 ft
Nearby Weather Stations

Elev 715 ft 41.67 °N, 74.06 °W | Updated 18 minutes ago

Overcast
Overcast
36.1 °F
Feels Like 36 °F
N
0.0
Wind Variable Wind from WNW

Today
High -- | Low -- °F
--% Chance of Precip.
Yesterday
High -- | Low -- °F
Precip. -- in
6:48 AM 7:15 PM
Waxing Crescent, 50% visible
Pressure 29.72 in
Visibility 10.0 miles
Clouds Scattered Clouds 1400 ft
Scattered Clouds 2200 ft
Overcast 2700 ft
Windchill 36 °F
Dew Point 36 °F
Humidity 99%
Rainfall 0.00 in
Snow Depth Not available.
UV 0 out of 12
Pollen 3.40 out of 12
Air Quality Not available.
Flu Activity Not available.
METAR KPOU 270653Z AUTO 00000KT 10SM SCT014 SCT022 OVC027 04/02 A2972 RMK AO2 SLP062 T00390022

More Conditions Fewer Conditions

Pressure 29.72 in
Visibility 10.0 miles
Clouds Scattered Clouds 1400 ft
Scattered Clouds 2200 ft
Overcast 2700 ft
Windchill 36 °F
Dew Point 36 °F
Humidity 99%
Rainfall 0.00 in
Snow Depth Not available.
UV 0 out of 12
Pollen 3.40 out of 12
Air Quality Not available.
Flu Activity Not available.
METAR KPOU 270653Z AUTO 00000KT 10SM SCT014 SCT022 OVC027 04/02 A2972 RMK AO2 SLP062 T00390022

More Conditions Fewer Conditions

10-Day Weather Forecast

Almanac

Astronomy

Mar. 27, 2015 Rise Set
Actual Time
Civil Twilight
Nautical Twilight
Astronomical Twilight
Moon
Length of Visible Light
Length of Day
Tomorrow will be .
, % of the Moon is Illuminated

Today's Extremes

State Highs State Lows

Community

WunderPhotos

Upload Photos

1,808,701 photos uploaded!

WunderBlogs® & News

Nearby

Air Quality

  Air Quality AQ Index Pollutant
Not available.

Snow Depth

Station Depth Elevation

Earthquake Activity

City Distance Mag. Time & Date
Minimum magnitude displayed is 2.5.

Coastal Water Temperatures

Place Temperature

Stations

Nearby Weather Stations

Station Location Temp. Windchill Dew Point Humidity Wind Precip. Elev Updated Type